Home > Time Zones > World Clock > Weather > Italy > Bari > Past weeks

Flag for Italy Weather past 2 weeks in Bari, Italy

Now
57 °F

Passing clouds.


Feels Like: 53 °F
Forecast: 47 / 57 °F
Wind: 17 mph from North

Location: Bari / Palese Macchie

Current Time: Mar 28, 2015 at 3:48:48 PM

Latest Report: Mar 28, 2015 at 3:20 PM


Visibility: N/A

Pressure: 29.80 "Hg

Humidity: 63%

Dew point: 45 °F

Location of BariLocation

Historic Weather in Bari — Graph

°F

Bari temperature yesterday

Maximum temperature yesterday: 59 °F (at 11:20 AM)
Minimum temperature yesterday: 54 °F (at 12:20 AM)
Average temperature yesterday: 55 °F

Past Weeks' High & Low Weather Summary

 TemperatureHumidityPressure
High68 °F (Mar 26, 11:50 AM)100% (Mar 18, 12:50 AM)30.33 "Hg (Mar 18, 12:50 AM)
Low36 °F (Mar 21, 1:50 AM)20% (Mar 21, 4:20 PM)29.53 "Hg (Mar 25, 8:50 AM)
Average52 °F78%30.02 "Hg
* Reported Mar 13 2:20 PM — Mar 28 2:20 PM, Bari, Weather by CustomWeather, © 2015

Note: Actual official high and low records may vary slightly from our data, if they occured in-between our weather recording intervals... More about our weather records

Advertising

Bari weather history for previous 24 hours

 ConditionsComfort  
Time TempWeatherWind HumidityBarometerVisibility
2:20 PM
Sat, Mar 28
57 °FPassing clouds.21 mph63%29.80 "HgN/A
1:50 PM57 °FPassing clouds.21 mph59%29.80 "HgN/A
1:20 PM57 °FPassing clouds.20 mph67%29.80 "HgN/A
12:50 PM57 °FPassing clouds.22 mph63%29.80 "HgN/A
12:20 PM57 °FPassing clouds.20 mph67%29.83 "HgN/A
11:50 AM57 °FPassing clouds.21 mph67%29.80 "HgN/A
11:20 AM57 °FPassing clouds.20 mph67%29.80 "HgN/A
10:50 AM57 °FPassing clouds.17 mph72%29.80 "HgN/A
10:20 AM55 °FPassing clouds.18 mph77%29.80 "HgN/A
9:50 AM55 °FPassing clouds.16 mph82%29.80 "HgN/A
9:20 AM55 °FPassing clouds.16 mph77%29.80 "HgN/A
8:50 AM54 °FPassing clouds.18 mph82%29.77 "HgN/A
8:20 AM54 °FScattered clouds.13 mph82%29.77 "HgN/A
7:50 AM54 °FScattered clouds.14 mph82%29.77 "HgN/A
7:20 AM52 °FScattered clouds.14 mph94%29.77 "HgN/A
6:50 AM52 °FLight rain. Scattered clouds.14 mph94%29.77 "Hg5 mi
6:20 AM54 °FLight rain. Scattered clouds.17 mph88%29.74 "HgN/A
5:50 AM54 °FScattered clouds.15 mph88%29.74 "HgN/A
4:20 AM54 °FPassing clouds.9 mph94%29.71 "Hg4 mi
3:50 AM54 °FPassing clouds.9 mph94%29.71 "Hg4 mi
3:20 AM54 °FLight rain. Passing clouds.10 mph94%29.68 "Hg4 mi
2:50 AM54 °FLight rain. Passing clouds.12 mph94%29.65 "Hg4 mi
2:20 AM54 °FLight rain. Passing clouds.12 mph100%29.65 "Hg4 mi
1:50 AM54 °FLight rain. Passing clouds.10 mph100%29.65 "Hg4 mi
1:20 AM54 °FLight rain. Passing clouds.9 mph100%29.65 "Hg4 mi
12:50 AM54 °FLight rain. Passing clouds.9 mph100%29.65 "Hg4 mi
12:20 AM54 °FLight rain. Passing clouds.13 mph100%29.65 "Hg4 mi
11:50 PM
Fri, Mar 27
54 °FHeavy rain. Passing clouds.8 mph100%29.65 "Hg3 mi
11:20 PM54 °FRain. Passing clouds.9 mph100%29.65 "Hg3 mi
10:50 PM54 °FRain. Passing clouds.9 mph100%29.62 "Hg4 mi
10:20 PM54 °FPassing clouds.10 mph100%29.62 "Hg4 mi
9:50 PM54 °FRain. Passing clouds.10 mph100%29.62 "Hg4 mi
9:20 PM54 °FRain. Passing clouds.12 mph100%29.62 "HgN/A
8:50 PM54 °FRain. Passing clouds.12 mph100%29.62 "HgN/A
8:20 PM54 °FPassing clouds.12 mph100%29.62 "HgN/A
7:50 PM55 °FPassing clouds.15 mph94%29.59 "Hg5 mi
7:20 PM55 °FRain. Passing clouds.14 mph94%29.59 "Hg4 mi
6:50 PM55 °FPartly cloudy.14 mph94%29.59 "Hg4 mi
6:20 PM55 °FRain. Partly cloudy.14 mph94%29.59 "Hg2 mi
5:50 PM55 °FRain. Broken clouds.6 mph94%29.59 "Hg2 mi
5:20 PM55 °FRain. Broken clouds.7 mph94%29.59 "Hg2 mi
4:50 PM55 °FRain. Broken clouds.7 mph94%29.59 "Hg2 mi
4:20 PM55 °FDrizzle. Broken clouds.7 mph94%29.56 "Hg4 mi
3:50 PM55 °FScattered clouds.8 mph94%29.56 "Hg5 mi
3:20 PM57 °FScattered clouds.7 mph88%29.56 "Hg5 mi
Weather by CustomWeather, © 2015

See weather overviewHow to use our weather pages